Погода в Ваммала

Финляндия     61°20′29″N   22°54′33″E
темп.,
°C
ветер,
м/с
пор.,
м/с
влажн.,
%
обл.,
%
осадки,
мм/ч
давл.,
гПа
погр.,
м
27 ноября, сб
сб2723:00−5всв128348 0.0 100388
02:00−6в128660 0.0 100461
05:00−7всв24875 0.0 1005122
08:00−7всв26875 0.0 1006189
11:00−6в3776100 0.0 1007269
14:00−6св3774100 0.0 1007320
17:00−6всв3981100 0.0 1008327
20:00−7всв3982100 0.0 1007346
28 ноября, вс
вс2823:00−7св3980100 0.0 1007347
02:00−7св3982100 0.0 1006334
05:00−7св3981100 0.0 1006345
08:00−7св31079100 0.0 1006335
11:00−6св31069100 0.0 1007359
14:00−6св3867100 0.0 1007403
17:00−6св3975100 0.0 1008405
20:00−6всв2881100 0.0 1009419
29 ноября, пн
пн2923:00−6всв3884100 0.0 1009431
02:00−6всв388262 0.0 1009459
05:00−7всв398518 0.0 1009397
08:00−7всв39855 0.0 1008428
11:00−6всв398485 0.0 1008540
14:00−6всв3880100 0.0 1006585
17:00−7св3886100 0.0 1004529
20:00−8ссв4886100 0.0 1002415
30 ноября, вт
вт3023:00−8ссв4984100 0.0 1000435
02:00−9ссв4979100 0.0 997510
05:00−9с4108387 0.0 995553
08:00−9с4108680 0.0 993454
11:00−10с4108189 0.0 993418
14:00−10ссз4107627 0.0 991453
17:00−10ссз3108340 0.0 992461
20:00−10ссз4118525 0.0 992438
1 декабря, ср
ср123:00−10сз312845 0.0 993422
02:00−9сз3118311 0.0 994389
05:00−9сз289563 0.0 994198
08:00−9сз149620 0.0 99574
11:00−8з12915 0.0 99661
14:00−7зюз138923 0.0 99584
17:00−8юз119174 0.0 99511
20:00−8ю119483 0.1 99412